Regional Weather Roundup
Issued by NWS

Home | Current Version | Previous Version | Graphics & Text | Print | Product List | Glossary On
Versions: 1 2 3 4 5 6 7 8 9 10 11 12 13 14 15 16 17 18 19 20 21 22 23 24 25 26 27 28 29 30 31 32 33 34 35 36 37 38 39 40 41 42 43 44 45 46 47 48 49 50
847
ASUS43 KIND 161809
RWRIN

WEATHER ROUNDUP FOR INDIANA
NATIONAL WEATHER SERVICE INDIANAPOLIS IN
100 PM EST SAT DEC 16 2017

NOTE: "FAIR" INDICATES FEW OR NO CLOUDS BELOW 12,000 FEET WITH NO
SIGNIFICANT WEATHER AND/OR OBSTRUCTIONS TO VISIBILITY.

* - STATION DOES NOT REPORT WEATHER SUCH AS PRECIPITATION OR FOG.

+ - STATION NOT QUALITY CONTROLLED BY THE NATIONAL WEATHER SERVICE.
    USE DATA WITH CAUTION...ESPECIALLY DEWPOINT AND RELATIVE
    HUMIDITY OBSERVATIONS.

INZ001>003-010>013-019-020-161900-
NORTHWEST INDIANA

CITY           SKY/WX    TMP DP  RH WIND       PRES   REMARKS
GARY /AIRPORT/ SUNNY     45  23  42 SW12      29.91F
KNOX *+        SUNNY     41  28  60 SW12      29.92F
LA PORTE +     SUNNY     39  27  62 SW8       29.92F WCI  33
6HR MIN TEMP:  32; 6HR MAX TEMP:  39;

MICHIGAN CITY+ SUNNY     41  27  56 SW8       29.92F
MONTICELLO +   SUNNY     45  25  45 SW17G23   29.94F
6HR MIN TEMP:  32; 6HR MAX TEMP:  46;

RENSSELAER +   SUNNY     46  18  31 SW15G22   29.94S
VALPARAISO     SUNNY     44  27  51 SW15      29.92F
6HR MIN TEMP:  32; 6HR MAX TEMP:  44;


$$

LMZ046-743>745-161900-
SOUTHERN LAKE MICHIGAN

STATION/POSITION TIME  TEMP    WIND        PRES    WAVE
                       AIR SEA DIR/SP/G            HT
                 (UTC) (F)     (DEG/KT/KT) (MB)    (FT)
BURNS HARBOR     1740   42     210/ 11/ 14 1013.5F
MICHIGAN CITY    1740   40     200/  9/ 10   N/A

$$

INZ004-005-014>016-021>024-161900-
NORTH CENTRAL INDIANA

CITY           SKY/WX    TMP DP  RH WIND       PRES   REMARKS
ELKHART        SUNNY     39  25  56 SW9       29.93F WCI  33
GOSHEN         SUNNY     37  27  67 SW12      29.93F WCI  29
6HR MIN TEMP:  33; 6HR MAX TEMP:  37;

LOGANSPORT +   SUNNY     45  28  53 SW18      29.96F
PERU/GRISSOM   SUNNY     46  27  47 SW17      29.94F
6HR MIN TEMP:  32; 6HR MAX TEMP:  46;

ROCHESTER +    SUNNY     43  30  61 SW9       29.94F
SOUTH BEND     SUNNY     38  28  67 SW13      29.93F WCI  30
6HR MIN TEMP:  33; 6HR MAX TEMP:  38;

WARSAW +       SUNNY     39  28  65 SW7       29.94F WCI  34

$$

INZ006>009-017-018-025>027-161900-
NORTHEAST INDIANA

CITY           SKY/WX    TMP DP  RH WIND       PRES   REMARKS
AUBURN +       SUNNY     41  28  60 SW7       29.95F
FORT WAYNE     MOSUNNY   42  30  62 SW12      29.96F
6HR MIN TEMP:  33; 6HR MAX TEMP:  42;

HUNTINGTON +   SUNNY     45  26  48 W13G18    29.96F
6HR MIN TEMP:  33; 6HR MAX TEMP:  45;


$$

INZ028-029-035-036-043>045-051>053-161900-
WEST CENTRAL INDIANA

CITY           SKY/WX    TMP DP  RH WIND       PRES   REMARKS
CRAWFORDSVL +  SUNNY     45  28  52 SW18G24     N/A
6HR MIN TEMP:  29; 6HR MAX TEMP:  45;

GREENCASTLE +  SUNNY     45  28  53 SW7G17    29.99F
LAFAYETTE      SUNNY     46  28  49 SW12G23   29.96F
6HR MIN TEMP:  31; 6HR MAX TEMP:  46;

TERRE HAUTE    SUNNY     49  28  44 SW16      30.00F
6HR MIN TEMP:  31; 6HR MAX TEMP:  49;


$$

INZ030>032-037>040-046>048-054>057-064-065-161900-
CENTRAL INDIANA

CITY           SKY/WX    TMP DP  RH WIND       PRES   REMARKS
COLUMBUS       SUNNY     46  23  39 SW14G21   30.04F
FRANKFORT +    SUNNY     49  29  46 W18       29.98F
6HR MIN TEMP:  33; 6HR MAX TEMP:  49;

GREENWOOD *+   SUNNY     52  30  42 SW15G23   30.00F
INDIANAPOLIS   MOSUNNY   49  27  42 SW18      30.00F
6HR MIN TEMP:  30; 6HR MAX TEMP:  49;

-EAGLE CREEK   SUNNY     47  27  45 SW12G22   29.98F
6HR MIN TEMP:  32; 6HR MAX TEMP:  48;

KOKOMO +       SUNNY     46  28  49 SW20      29.97S
6HR MIN TEMP:  33; 6HR MAX TEMP:  46;

MARION +       SUNNY     45  28  50 SW17      29.97F
MT COMFORT *+  SUNNY     48  32  53 SW15G25   29.99F
SHELBYVILLE    SUNNY     49  26  41 SW20G28   30.00F
6HR MIN TEMP:  30; 6HR MAX TEMP:  49;

ZIONSVILLE +   SUNNY     46  27  48 SW18      29.98F
6HR MIN TEMP:  31; 6HR MAX TEMP:  46;


$$

INZ033-034-041-042-049-050-058-059-161900-
EAST CENTRAL INDIANA

CITY           SKY/WX    TMP DP  RH WIND       PRES   REMARKS
MUNCIE         SUNNY     47  26  44 SW16G23   29.97F
6HR MIN TEMP:  34; 6HR MAX TEMP:  47;

RICHMOND +     SUNNY     45  27  49 SW24      30.01F

$$

INZ060-061-067>069-081>083-085>088-161900-
SOUTHWEST INDIANA

CITY           SKY/WX    TMP DP  RH WIND       PRES   REMARKS
EVANSVILLE     SUNNY     48  31  51 S21G26    30.11F
6HR MIN TEMP:  33; 6HR MAX TEMP:  48; 6HR PCP: TRACE;

HUNTINGBURG +  SUNNY     47  31  53 S18       30.11F
6HR MIN TEMP:  31; 6HR MAX TEMP:  47;

WASHINGTON +   SUNNY     48  28  46 S15G25    30.06F
6HR MIN TEMP:  31; 6HR MAX TEMP:  48;


$$

INZ062-063-066-070>080-084-089>092-161900-
SOUTH CENTRAL AND SOUTHEAST INDIANA

CITY           SKY/WX    TMP DP  RH WIND       PRES   REMARKS
BEDFORD +      SUNNY     48  27  43 SW14G22   30.06F
BLOOMINGTON    SUNNY     47  27  45 SW15G29   30.03F
6HR MIN TEMP:  30; 6HR MAX TEMP:  47;

MADISON *+     SUNNY     46  28  49 S16       30.10F
NORTH VERNON + SUNNY     46  28  49 S17       30.07F
SEYMOUR +      SUNNY     52  30  43 SW16      30.06F

$$





USA.gov is the U.S. government's official web portal to all federal, state and local government web resources and services.